Theta_e
321 326 328 336 339 338 341 340 337 343 346 344 340 343 340 344 343 338 343 344 341 322 321 322 324 324 323 322 321 321 322 323 323 321 320 322 323 328 330 328 327 327 329 332 329 325 324 327 326
320 325 335 335 339 341 340 337 338 343 340 338 338 336 337 346 345 343 346 346 335 321 322 324 324 323 322 321 320 321 323 324 323 321 322 322 321 321 323 324 325 325 327 327 326 323 325 328 326
329 331 334 332 336 341 342 338 344 344 342 346 342 337 339 347 344 346 347 344 325 321 324 324 323 322 320 320 320 323 325 324 321 320 322 320 326 328 326 321 322 324 326 326 324 323 325 328 327
332 332 336 336 341 339 340 336 346 345 345 346 342 341 342 342 342 344 344 333 322 322 324 324 323 321 320 319 322 325 324 322 320 321 321 319 326 337 332 324 321 322 323 323 322 322 325 329 331
332 334 333 337 339 339 339 339 345 344 346 346 344 341 339 344 344 342 332 325 321 323 325 324 322 320 319 320 324 323 320 318 319 322 320 318 323 333 334 323 321 321 321 321 320 322 325 331 332
330 331 334 340 340 340 338 339 341 342 344 344 340 339 342 342 340 340 334 325 321 324 325 325 322 321 319 320 324 321 319 317 319 322 321 319 318 321 321 320 320 320 320 320 320 321 326 328 332
327 331 338 341 341 338 339 337 338 342 344 345 341 336 346 344 341 338 331 323 321 324 325 325 323 322 320 321 324 322 320 319 320 322 323 321 319 319 319 319 319 319 319 319 320 323 326 329 331
325 330 340 339 339 341 339 335 341 341 344 344 340 338 343 344 339 334 328 323 322 324 325 325 324 323 320 320 324 324 324 320 321 322 323 323 323 321 320 320 320 320 321 321 324 326 325 323 328
325 332 338 341 341 340 339 334 341 342 343 344 343 339 337 340 337 327 324 323 323 323 325 325 324 324 322 320 322 325 329 322 326 326 324 326 324 323 323 324 323 323 323 323 325 329 332 332 326
322 324 332 336 338 338 335 336 343 343 343 341 340 337 338 337 336 334 332 335 331 323 324 324 324 324 323 332 325 324 331 330 332 330 331 334 336 333 325 329 324 326 323 323 323 328 333 334 334
321 321 325 327 328 338 337 333 337 343 342 339 336 337 337 336 335 335 336 335 332 330 324 324 323 323 324 335 328 323 328 334 335 333 333 334 334 336 338 336 334 334 332 329 332 333 335 336 334
320 321 322 323 325 335 334 335 342 341 342 336 332 336 336 335 335 335 334 335 333 334 329 324 326 323 325 337 335 333 334 334 336 339 336 336 337 338 338 339 339 338 339 336 335 335 335 336 336
319 320 321 322 323 323 330 338 340 341 341 335 335 335 335 335 334 333 333 333 334 334 334 335 334 328 332 337 337 337 337 337 336 337 339 339 338 338 339 338 338 338 339 339 338 338 338 337 337
319 319 319 322 323 323 335 341 343 341 340 337 336 336 335 334 333 333 335 335 334 333 334 335 335 335 334 336 337 337 338 338 337 337 337 339 339 339 339 338 338 339 338 337 338 339 339 339 339
321 319 317 321 322 325 342 342 341 342 340 339 338 337 336 335 334 333 333 334 333 333 334 335 335 335 335 335 337 338 337 338 337 337 337 337 337 338 339 338 337 335 338 338 340 341 342 343 341
319 316 319 319 321 324 332 341 337 341 340 339 339 337 337 336 335 334 333 332 333 333 333 334 335 335 335 335 336 337 336 336 337 336 336 336 336 336 336 336 337 337 337 336 340 341 342 343 343
313 317 319 319 320 322 325 332 334 341 339 339 339 338 337 338 337 336 335 333 332 332 332 333 334 334 334 335 336 338 337 337 336 336 337 336 336 336 336 336 336 337 338 338 334 338 341 342 343
316 318 318 318 319 319 321 325 335 342 340 340 339 339 340 340 340 339 339 336 334 332 332 332 332 333 335 336 336 337 338 338 337 335 332 333 334 335 336 336 336 337 339 338 338 338 338 340 341
318 318 318 317 318 320 318 319 334 341 341 341 340 340 340 340 339 339 339 339 337 334 333 332 332 332 334 334 333 332 330 329 327 326 324 323 326 329 331 333 335 335 336 338 339 339 339 340 340
317 318 317 318 318 319 318 320 329 338 339 340 340 340 341 340 340 340 339 339 338 337 334 333 332 332 331 331 331 330 331 332 331 332 335 339 341 341 342 341 339 338 337 337 338 339 340 341 342
317 317 318 318 319 318 320 321 326 332 338 339 339 340 340 341 340 340 339 338 338 337 335 334 332 331 331 331 333 332 331 330 333 337 341 342 344 347 348 345 344 343 341 338 338 340 342 341 342
316 316 318 318 320 318 323 323 323 331 334 338 338 338 339 339 339 340 339 338 338 337 335 334 332 331 331 332 335 337 336 334 339 344 347 348 348 347 346 345 345 345 346 339 339 341 342 341 340
318 319 318 318 318 319 320 320 320 337 335 337 339 339 338 337 338 338 338 337 336 336 334 333 332 332 332 334 336 340 342 340 346 349 350 352 350 347 346 346 345 344 342 341 341 339 340 339 339
319 319 318 317 315 317 319 319 318 334 339 339 347 346 343 340 338 337 336 334 334 334 333 333 332 333 334 336 339 343 345 348 352 352 349 346 346 346 345 345 345 343 343 341 340 338 338 337 336
318 316 317 319 319 319 318 319 318 324 337 345 347 347 347 347 346 346 345 344 341 339 337 335 336 338 340 342 345 349 350 350 347 344 343 342 342 341 341 339 338 336 335 334 333 332 331 330 329
316 314 316 319 321 320 320 320 325 341 346 346 345 345 346 348 347 347 347 347 347 348 348 348 349 348 349 348 348 348 346 345 343 340 339 339 336 335 335 334 333 332 331 329 327 324 321 318 317
317 315 315 316 319 321 318 346 347 346 346 345 345 345 345 347 348 348 348 348 347 346 346 346 346 346 344 344 343 342 341 340 338 338 337 334 333 332 331 329 327 325 323 321 319 318 318 317 316
318 316 318 313 319 320 318 327 350 349 349 346 341 341 344 346 346 346 346 346 346 344 343 342 342 342 341 340 340 339 337 337 336 334 332 329 328 326 325 322 321 319 319 319 320 320 319 318 319
316 316 315 314 315 319 319 331 341 347 346 345 342 342 342 344 345 344 343 342 342 340 339 338 337 337 337 336 336 336 336 335 330 329 327 325 322 321 321 321 321 321 321 319 318 317 316 314 313
315 316 315 317 317 317 319 319 336 342 343 343 342 341 340 340 337 338 339 338 338 337 335 334 333 332 332 334 332 330 330 329 328 325 322 321 321 321 321 322 321 320 319 317 316 315 312 309 307
Wind_Speed
6 7 6 2 4 4 3 2 3 4 3 1 14 5 6 6 2 3 21 23 23 24 21 19 16 14 12 9 8 7 7 8 8 8 7 8 9 10 9 11 12 10 10 9 8 8 7 6 6
6 6 2 1 5 4 5 2 3 6 14 22 13 10 5 4 5 19 29 20 24 23 21 19 16 13 11 8 7 7 7 7 8 8 9 9 10 9 9 10 11 11 10 9 8 7 7 6 7
6 5 2 4 3 2 3 3 4 9 18 4 7 10 4 4 14 32 20 27 27 23 21 18 15 12 10 8 7 7 7 8 9 10 10 11 12 11 9 10 10 10 10 9 9 9 8 7 8
6 0 4 4 1 5 3 5 12 10 7 4 16 8 9 1 21 21 23 28 26 24 20 17 14 11 10 8 7 7 7 8 10 11 11 11 13 12 10 9 10 9 9 8 8 8 8 8 10
3 1 3 3 3 5 4 10 17 7 4 8 5 4 6 19 16 21 25 26 25 24 20 17 14 11 10 8 7 7 7 9 10 11 11 12 13 12 9 8 9 9 8 8 8 9 9 9 11
1 1 4 2 4 3 5 7 9 4 8 11 9 8 3 14 21 23 22 24 23 22 20 17 14 11 9 8 7 8 8 9 11 12 12 12 12 11 9 8 8 8 8 7 8 8 9 10 11
3 4 0 3 6 6 3 5 2 6 11 5 19 4 9 26 24 20 22 23 22 21 19 17 14 12 10 9 8 8 9 11 12 13 13 12 12 11 10 9 8 7 7 7 8 8 8 9 9
3 4 3 3 2 5 4 4 8 6 0 20 14 7 9 28 25 20 24 22 21 20 18 16 14 13 10 9 9 9 9 12 13 13 13 13 13 12 10 10 9 8 8 8 8 8 7 7 8
1 4 2 4 4 3 5 2 8 4 17 2 7 14 24 32 27 27 28 25 23 21 18 16 14 13 11 10 9 10 11 13 15 16 16 15 13 12 11 10 9 8 8 9 9 8 7 7 6
4 3 7 5 2 4 4 3 11 5 9 4 11 18 36 32 30 31 30 26 23 23 19 17 15 14 13 11 9 11 12 13 13 14 16 16 15 14 11 12 11 9 9 10 11 10 5 4 2
3 4 2 9 17 16 6 6 9 16 5 14 31 37 37 33 31 27 26 21 17 17 19 18 16 15 14 10 10 11 11 12 12 12 13 12 12 11 11 10 10 10 10 11 10 7 5 4 2
4 3 8 12 17 1 5 9 8 9 5 18 29 39 39 36 35 31 28 24 23 19 16 17 15 17 16 11 9 10 10 9 9 8 8 7 8 8 8 7 7 7 5 4 4 3 2 0 1
3 4 11 22 21 11 10 13 11 7 11 21 34 39 38 36 33 30 25 24 24 22 19 18 15 17 18 12 10 10 8 6 6 5 5 4 3 3 3 4 3 4 4 3 4 6 6 8 6
3 11 14 13 19 3 8 3 10 9 22 27 35 39 39 38 36 33 33 30 29 23 21 20 15 14 16 12 11 9 7 6 6 5 2 2 2 3 3 4 5 5 6 6 7 8 9 10 10
5 6 9 5 5 6 15 2 5 25 28 32 34 37 38 38 36 36 33 34 30 25 22 22 17 15 13 11 11 10 8 7 8 6 5 5 7 8 8 9 9 9 9 10 11 11 14 14 15
4 5 4 4 6 3 3 8 5 27 33 30 32 34 37 37 37 34 33 33 31 27 26 24 21 18 14 13 11 12 11 10 9 8 8 9 10 10 11 12 12 11 12 15 16 17 16 15 15
7 3 3 10 3 1 3 3 6 28 27 26 30 34 38 36 34 34 33 33 31 29 26 26 23 19 15 15 13 14 15 13 13 14 14 14 14 15 16 17 16 16 17 17 18 21 22 21 19
5 3 4 6 3 5 3 7 6 30 28 28 29 31 36 37 35 31 32 33 31 30 27 24 23 20 18 17 15 18 19 18 18 19 19 19 19 18 18 19 19 18 19 18 17 17 20 23 25
0 2 6 6 7 6 7 7 9 25 24 19 25 29 34 39 33 30 30 30 30 31 29 27 24 22 22 20 19 20 19 17 17 17 18 19 20 21 22 22 21 24 22 18 15 18 19 19 20
3 4 7 9 5 3 8 13 8 17 28 35 33 31 39 39 35 34 32 31 32 30 30 28 26 23 22 22 19 18 17 15 14 12 12 14 16 18 20 23 23 24 23 24 22 21 22 23 24
4 6 3 8 8 6 5 8 3 8 16 26 26 38 37 41 36 36 35 34 33 32 30 27 25 24 22 19 16 15 16 15 13 13 15 18 20 19 19 21 24 26 24 22 24 26 24 25 24
7 6 7 7 3 5 4 8 5 8 19 16 25 30 35 35 32 35 36 34 32 31 29 27 26 24 22 18 14 12 13 13 14 17 17 17 22 23 22 23 23 25 27 24 25 21 23 26 24
10 7 8 7 5 2 4 2 9 2 8 14 8 21 25 23 27 30 35 33 31 29 28 29 28 25 22 18 17 15 14 15 15 15 16 16 17 17 15 11 12 14 15 18 18 24 25 18 15
7 5 6 2 4 4 6 6 6 5 7 5 9 13 18 19 21 22 24 26 26 28 26 24 25 23 22 22 20 18 16 15 13 9 10 11 12 11 9 8 8 6 11 13 11 12 10 10 9
4 5 3 4 2 6 3 3 7 9 3 10 14 21 23 23 24 20 15 12 13 16 18 22 21 20 20 21 19 14 15 11 9 7 5 5 6 6 8 8 8 7 7 5 5 3 2 2 1
8 9 5 5 3 4 5 6 4 8 21 30 25 26 28 28 26 26 24 21 18 16 15 12 13 14 11 8 5 4 4 4 1 2 3 4 6 7 5 5 6 6 6 7 7 9 9 8 8
3 4 8 7 1 1 4 4 7 9 14 21 23 27 30 30 27 25 22 19 15 11 8 10 11 8 7 6 6 7 7 5 1 2 3 4 6 7 6 8 8 10 10 10 8 10 10 7 7
6 6 2 2 4 6 6 4 8 12 12 13 17 22 28 26 22 20 19 15 9 9 9 6 8 10 9 8 7 7 9 6 4 5 6 8 9 9 8 9 10 11 12 11 10 12 12 11 10
4 3 1 3 5 7 4 6 5 16 19 19 17 25 33 32 30 26 22 19 18 14 13 10 9 9 9 9 10 9 10 10 11 11 12 12 12 10 9 9 9 10 11 11 10 11 12 13 9
10 13 8 5 6 3 4 6 5 7 12 22 23 21 23 24 21 20 23 22 18 17 15 11 10 8 10 13 15 16 15 12 11 12 13 10 9 9 8 8 8 7 9 10 11 13 14 14 12
Wind_Direction
358 354 315 356 47 63 354 1 331 59 63 3 159 160 145 61 96 191 146 162 166 160 156 157 156 148 141 135 137 142 143 140 139 142 139 141 139 149 150 152 152 154 151 145 140 134 131 125 118
340 337 21 125 72 41 303 319 158 180 145 111 88 100 50 81 100 139 151 161 167 160 155 153 153 147 138 143 143 146 141 137 137 136 137 140 140 144 147 149 151 155 151 145 144 138 136 131 123
356 344 351 81 97 166 232 98 199 126 135 128 119 76 74 114 131 143 155 157 163 158 154 152 150 143 141 143 145 143 138 136 137 135 134 136 133 126 131 142 152 155 152 148 144 138 141 141 135
339 338 69 80 192 254 254 114 164 154 120 90 119 80 86 39 137 152 153 156 160 156 153 152 147 144 141 140 143 136 132 139 139 135 133 134 135 140 132 133 145 149 148 145 141 135 135 142 144
324 89 55 60 251 263 259 192 174 157 97 138 95 98 82 149 149 152 155 160 161 153 155 153 148 146 141 139 137 130 134 140 140 134 129 131 134 139 143 131 136 140 143 141 136 133 137 146 155
331 71 49 1 296 277 295 203 193 116 113 116 103 93 65 165 159 154 159 161 162 157 158 156 151 147 143 142 130 124 128 131 136 133 128 128 136 136 130 125 129 132 134 133 129 133 139 151 163
90 66 85 290 321 346 337 83 316 133 139 128 131 82 139 155 150 150 161 163 163 163 163 160 156 154 151 146 129 121 127 133 136 135 129 126 127 130 127 126 124 120 120 123 130 140 141 149 161
9 87 31 307 355 288 303 313 136 135 59 143 141 158 172 163 152 152 159 162 166 169 170 167 165 159 151 143 126 115 123 132 132 131 129 127 126 123 122 124 122 116 114 122 135 135 128 143 157
39 57 312 255 187 225 274 108 147 188 151 179 199 173 164 158 156 152 157 165 169 175 176 177 173 165 153 141 136 123 120 129 126 125 121 116 115 111 113 113 116 122 123 128 142 133 109 103 127
99 121 223 215 305 189 213 90 157 142 182 69 120 142 154 162 163 162 164 168 173 176 179 183 182 175 160 140 148 137 131 132 130 128 125 117 110 102 105 98 111 102 118 125 146 151 126 131 123
167 206 236 290 294 251 283 255 191 142 236 176 151 156 164 169 173 175 174 170 158 164 183 182 186 185 172 145 136 146 141 137 131 129 132 131 125 119 111 108 110 107 106 120 135 140 140 109 129
334 289 289 301 313 188 228 207 157 173 250 182 166 166 169 178 183 186 184 181 179 174 167 174 186 191 180 167 139 149 136 137 138 120 125 130 133 133 130 128 140 137 135 169 170 176 196 85 23
246 304 320 311 307 297 228 203 161 211 162 166 164 170 178 185 192 194 193 188 189 185 180 179 180 183 184 182 166 166 157 147 136 141 131 124 113 137 145 160 161 173 192 199 246 247 259 266 286
267 292 299 309 305 319 169 172 145 179 164 165 171 178 186 193 198 202 203 200 199 195 192 188 191 190 194 199 189 186 186 192 191 190 196 225 255 279 301 297 287 268 268 242 241 264 273 267 267
287 328 334 308 315 358 119 38 241 168 169 172 182 187 190 198 205 210 210 210 205 205 200 202 201 202 209 210 208 208 212 219 220 226 242 275 273 282 292 298 306 302 278 244 251 270 287 275 283
15 52 355 267 324 173 131 241 239 177 172 183 191 196 198 202 206 216 219 218 214 211 206 209 207 214 217 220 225 229 235 242 253 253 249 266 275 282 286 292 299 307 302 272 263 269 276 281 287
357 222 222 311 202 291 116 248 257 186 186 188 195 199 203 207 210 213 222 223 221 218 214 213 216 224 227 218 226 233 243 251 260 268 268 268 270 272 274 278 287 293 291 298 281 273 273 281 285
250 248 262 251 308 13 342 230 235 191 194 197 200 203 208 211 210 210 216 222 223 223 222 226 227 227 221 218 224 232 242 247 259 271 269 269 273 275 276 280 283 279 275 280 288 287 280 279 281
244 255 272 277 284 325 277 267 210 200 202 206 209 209 212 214 212 211 215 217 219 222 222 225 227 224 222 225 232 240 244 252 261 269 270 269 271 271 270 272 274 275 275 278 281 278 288 290 288
251 286 288 285 272 167 300 278 226 194 205 204 202 208 214 216 215 212 215 217 220 223 223 223 225 226 230 236 248 249 250 256 262 270 277 270 264 265 269 269 268 272 272 270 274 276 277 282 285
256 231 236 246 324 247 252 294 240 199 221 216 216 212 213 215 212 212 212 214 217 221 222 223 224 227 231 239 252 253 255 268 276 277 274 272 275 276 284 282 277 276 274 271 269 267 269 275 286
272 214 243 273 9 268 90 294 275 224 204 208 211 210 214 218 215 213 211 213 216 216 217 221 222 227 232 239 250 263 269 273 279 283 285 291 293 291 292 287 286 278 270 260 268 267 272 282 288
244 261 229 250 230 281 232 134 273 80 232 207 170 209 210 211 213 210 208 211 209 212 213 217 220 224 229 238 244 252 266 266 275 277 289 285 298 303 307 300 294 286 274 264 259 273 284 290 290
277 310 286 80 139 236 244 174 280 201 203 160 106 124 163 164 176 188 200 206 209 210 212 219 223 229 234 238 240 249 249 257 268 261 299 309 304 301 308 313 304 302 306 298 295 292 291 289 299
195 76 308 313 179 225 147 132 230 318 156 119 103 93 104 120 134 133 142 164 180 200 213 220 225 230 232 236 242 241 238 243 287 300 332 349 319 323 331 330 337 347 347 341 337 313 308 1 32
193 164 171 214 228 268 128 229 309 338 105 107 97 103 106 116 117 115 116 115 112 126 138 156 181 184 188 206 175 180 202 258 205 341 326 329 349 357 354 32 31 19 48 63 77 89 86 81 77
280 176 197 227 305 290 227 87 51 81 91 105 112 110 114 122 127 127 130 129 124 111 117 161 170 165 143 141 131 122 118 107 100 349 354 18 6 58 77 79 78 86 82 73 65 66 60 47 55
195 194 275 355 199 236 278 217 175 152 140 131 129 127 130 134 135 138 134 129 142 185 166 161 148 145 133 132 124 123 117 113 121 100 97 101 87 95 93 86 81 84 82 73 62 58 48 32 34
293 234 202 175 163 209 229 260 180 168 164 153 151 155 149 146 147 144 135 133 130 150 139 149 134 133 133 128 113 110 110 115 115 113 113 114 111 103 94 86 81 77 76 62 34 26 17 6 10
257 245 189 177 261 238 182 254 330 166 164 151 154 157 152 152 158 150 145 134 140 155 162 153 135 138 121 114 113 109 111 112 116 117 112 107 98 95 81 76 74 69 54 39 27 23 29 37 39